Simultaneous Nadir Overpasses (SNOs) Predictions

Prediction of SNOs between METOP-B and NOAA-19 Satellite Orbit:

Table of predicted SNOs for the next 14.0 days since TLE Epoch: 6/24/2016
Index Date (METOP-B) Time (METOP-B) Lat,Lon (METOP-B) SZA (METOP-B ) Date (NOAA-19) Time (NOAA-19) Lat,Lon (NOAA-19) SZA (NOAA-19 ) Distance(km) Time Diff (sec)
1 06/26/2016 02:28:01 76.12, 143.73 52.70 06/26/2016 02:26:54 76.10, 143.80 52.68 2.54 67
2 06/26/2016 03:18:42 -76.13, -48.91 127.29 06/26/2016 03:17:50 -76.13, -49.04 127.29 3.56 52
3 06/26/2016 04:09:23 76.10, 118.33 52.68 06/26/2016 04:08:56 76.10, 118.30 52.68 0.84 27
4 06/26/2016 05:00:05 -76.07, -74.46 127.35 06/26/2016 04:59:51 -76.09, -74.38 127.33 3.09 14
5 06/26/2016 05:50:45 76.09, 92.94 52.67 06/26/2016 05:50:57 76.06, 92.96 52.64 3.55 12
6 06/26/2016 06:41:27 -76.05, -99.85 127.37 06/26/2016 06:41:52 -76.04, -99.72 127.38 3.79 25
7 06/26/2016 07:32:07 76.07, 67.55 52.66 06/26/2016 07:32:59 76.05, 67.46 52.64 2.95 52
8 06/26/2016 08:22:48 -76.04,-125.24 127.38 06/26/2016 08:23:53 -76.04,-125.22 127.38 0.77 65
9 07/06/2016 18:24:06 -76.22, 85.09 126.44 07/06/2016 18:22:52 -76.23, 84.58 126.43 13.69 74
10 07/06/2016 19:14:48 76.14,-107.87 53.48 07/06/2016 19:13:57 76.15,-107.88 53.49 1.16 51
11 07/06/2016 20:05:30 -76.12, 59.38 126.54 07/06/2016 20:04:52 -76.14, 59.41 126.51 3.21 38
12 07/06/2016 20:56:10 76.12,-133.27 53.48 07/06/2016 20:55:58 76.10,-133.22 53.46 2.57 12
13 07/06/2016 21:46:52 -76.10, 33.99 126.55 07/06/2016 21:46:53 -76.10, 34.07 126.55 2.07 1
14 07/06/2016 22:37:32 76.10,-158.66 53.47 07/06/2016 22:38:00 76.10,-158.72 53.46 1.62 28
15 07/06/2016 23:28:14 -76.08, 8.59 126.55 07/06/2016 23:28:55 -76.10, 8.56 126.54 1.65 41
16 07/07/2016 00:18:53 76.09, 175.94 53.46 07/07/2016 00:20:00 76.05, 175.94 53.42 3.87 67
17 07/07/2016 01:09:40 -75.84, -17.57 126.79 07/07/2016 01:10:51 -75.87, -16.14 126.76 39.07 71




NCC Satellite Simultaneous Nadir Overpasses (SNOs) Prediction Service
